User: anonymous   Login
Location: Unspecified
(0.0000°N, 0.0000°E)
Time: 00:03:49
(UTC+00:00)
Language:

MTI - Orbit

View from above orbital plane
View from above orbital plane
View from above satellite
View from above satellite

Ground track
Ground track

The orbit data is extracted from the following two-line orbital elements,

1 26102U 00014A   17172.79925819 +.00003920 +00000-0 +79404-4 0  9996
2 26102 097.5749 344.1223 0006245 252.7299 221.6795 15.47053599955230
Epoch (UTC): 21 June 2017 19:10:55
Eccentricity: 0.0006245
inclination: 97.5749°
perigee height: 421 km
apogee height: 429 km
right ascension of ascending node: 344.1223°
argument of perigee: 252.7299°
revolutions per day: 15.47053599
mean anomaly at epoch: 221.6795°
orbit number at epoch: 95523

The dashed part of the orbit path shows where the satellite is in the earth's shadow,  

DLR